Preview of NWS' New Version of Forecast
This preview is not operational and should not be used for support decisions.

Regional Weather Roundup (RWR)

Issued by Gray - Portland, ME (GYX)

                            
000
ASUS41 KGYX 230405
RWRGYX
WEATHER ROUNDUP FOR MAINE AND NEW HAMPSHIRE
NATIONAL WEATHER SERVICE GRAY ME
1200 AM EDT THU MAY 23 2019

MEZ002-005-006-010-012-015-018-020-021-024-026-027-029-230500-
MAINE
  
CITY           SKY/WX    TMP DP  RH WIND       PRES   REMARKS
PORTLAND       FAIR      50  36  58 SW6       30.23F                  
SANFORD        FAIR      42  40  92 CALM      30.24S                  
BAR HARBOR     FAIR      43  39  86 CALM      30.24R                  
WISCASSET      FAIR      43  38  82 CALM      30.25S                  
ROCKLAND       FAIR      44  39  82 CALM      30.23S                  
FRYEBURG       FAIR      45  40  82 CALM      30.22S                  
LEWISTONAUBURN FAIR      49  38  65 S3        30.23S                  
AUGUSTA        FAIR      48  38  68 S3        30.23S                  
WATERVILLE     FAIR      48  40  73 SW3       30.20S                  
BANGOR         FAIR      44  41  89 CALM      30.22R                  
GREENVILLE       N/A     44  35  70 NE3       30.19S                  
MILLINOCKET    FAIR      43  40  89 CALM      30.23S                  
HOULTON        FAIR      36  34  92 CALM      30.20R                  
PRESQUE ISLE   FAIR      38  37  97 CALM      30.22R                  
FRENCHVILLE    FAIR      48  38  68 SW3       30.20S                  
CARIBOU        FAIR      42  37  82 CALM      30.20S                  
$$

NHZ002-005-008-009-011-012-014-230500-
NEW HAMPSHIRE
  
CITY           SKY/WX    TMP DP  RH WIND       PRES   REMARKS
ROCHESTER      FAIR      50  38  63 CALM      30.23S                  
NASHUA         FAIR      54  44  69 SE5       30.24S                  
MANCHESTER     MOCLDY    55  39  54 S7        30.22R                  
CONCORD        FAIR      53  37  54 VRB5      30.22S                  
LACONIA        FAIR      56  38  50 S5        30.22S                  
PLYMOUTH       FAIR      49  44  81 CALM      30.22R                  
BERLIN         NOT AVBL                                               
WHITEFIELD     HAZE      44  39  82 CALM      30.21R VSB 1/2          
JAFFREY        FAIR      48  41  76 CALM      30.24R                  
KEENE          FAIR      48  43  82 CALM      30.21R                  
LEBANON        FAIR      52  43  71 S5        30.20R                  
MT WASHINGTON  MOCLDY    32  27  80 S10         N/A                   
$$

VTZ005-007-008-230500-
VERMONT
  
CITY           SKY/WX    TMP DP  RH WIND       PRES   REMARKS
ST JOHNSBURY     N/A     50  43  77 MISG      30.20R                  
MONTPELIER     CLOUDY    52  44  74 CALM      30.24R                  
BURLINGTON     CLOUDY    57  41  55 S5        30.20R                  
$$

MAZ007-012-024-CTZ003-RIZ002-NYZ038-NYZ072-230500-
SOUTHERN NEW ENGLAND AND NY
  
CITY           SKY/WX    TMP DP  RH WIND       PRES   REMARKS
BOSTON         MOCLDY    55  39  54 SW13      30.25S                  
WORCESTER      MOCLDY    50  41  71 S10       30.25R                  
NANTUCKET      FAIR      48  42  80 SW9       30.28S                  
PROVIDENCE     FAIR      51  45  79 S5        30.27S                  
HARTFORD       FAIR      56  47  71 SE8       30.23R                  
ALBANY         CLOUDY    60  40  47 SE3       30.17F                  
NEW YORK CITY  CLOUDY    68  41  37 SW14      30.21F                  
$$

ANZ081-ANZ082-ANZ150-NHZ014-MEZ023>029-230500-
COASTAL MARINE OBSERVATIONS
  
STATION/POSITION TIME  TEMP    WIND        PRES    WAVE
                       AIR SEA DIR/SP/G            HT/PER
                 (UTC) (F)     (DEG/KT/KT) (MB)    (FT/S)
ISLE OF SHOALS   0300   53     200/ 13/ 14 1023.6R
JEFFREYS LEDGE   0338      47                N/A     1/ 6
GEORGES BANK BUO 0350   45 44   50/ 10/ 12 1024.2F   5/ 7
$$

.............KEY..............
   WCI - WIND CHILL
   TC  - TEMPERATURE IN CELSIUS
   VSB - VISIBILITY IN MILES
   HX  - HEAT INDEX
   FAIR- INDICATES FEW OR NO CLOUDS BELOW 12,000 FT, WITH NO 
         SIGNIFICANT WEATHER AND/OR OBSTRUCTIONS TO VISIBILITY.